Regional Weather Roundup
Issued by NWS

Home | Current Version | Previous Version | Graphics & Text | Print | Product List | Glossary On
Versions: 1 2 3 4 5 6 7 8 9 10 11 12 13 14 15 16 17 18 19 20 21 22 23 24 25 26 27 28 29 30 31 32 33 34 35 36 37 38 39 40 41 42 43 44 45 46 47 48 49 50
373
ASUS43 KLSX 300607
RWRMO

WEATHER SUMMARY FOR MISSOURI
NATIONAL WEATHER SERVICE SPRINGFIELD MO
100 AM CDT THU MAR 30 2017

NOTE: "FAIR" INDICATES FEW OR NO CLOUDS BELOW 12,000 FEET WITH NO
       SIGNIFICANT WEATHER AND/OR OBSTRUCTIONS TO VISIBILITY.
       CURRENT SKY AND/OR WEATHER CONDITIONS ARE NOT AVAILABLE FOR
       CHILLICOTHE AND FARMINGTON.

MOZ001>031-035>038-043-044-053-054-300700-
...NORTHERN AND WESTERN MISSOURI...

CITY           SKY/WX    TMP DP  RH WIND       PRES   REMARKS
KANSAS CTY INT CLOUDY    53  53 100 NE17      29.59F FOG
6HR MIN TEMP:  53; 6HR MAX TEMP:  55; 6HR PCP:  0.27;

KANSAS C DTWN  CLOUDY    54  53  97 E10       29.59F
6HR MIN TEMP:  54; 6HR MAX TEMP:  59; 6HR PCP:  0.02;

LEE`S SUMMIT   CLOUDY    54  54 100 E10       29.61S FOG
6HR MIN TEMP:  54; 6HR MAX TEMP:  60; 6HR PCP:  0.10;

ST JOSEPH      CLOUDY    51  51 100 E14G26    29.62S
6HR MIN TEMP:  51; 6HR MAX TEMP:  54; 6HR PCP:  0.25;

CHILLICOTHE      N/A     51  50  96 N10       29.68S
6HR MIN TEMP:  51; 6HR MAX TEMP:  55; 6HR PCP:  0.20;

KIRKSVILLE     CLOUDY    49  50 100 NE15      29.68F
6HR MIN TEMP:  49; 6HR MAX TEMP:  51; 6HR PCP:  0.20;


$$
MOZ066>068-077>081-088>096-101>105-300700-
...SOUTHWEST MISSOURI...

CITY           SKY/WX    TMP DP  RH WIND       PRES   REMARKS
SPRINGFIELD    MOCLDY    56  53  90 S6        29.65F
6HR MIN TEMP:  56; 6HR MAX TEMP:  69; 6HR PCP:  0.03;

JOPLIN         CLEAR     51  46  83 SW12      29.66S
6HR MIN TEMP:  51; 6HR MAX TEMP:  71; 6HR PCP: TRACE;

BRANSON        CLOUDY    61  54  77 CALM      29.68F

$$
MOZ032>034-039>042-045>050-055>058-069>072-300700-
...CENTRAL MISSOURI...

CITY           SKY/WX    TMP DP  RH WIND       PRES   REMARKS
COLUMBIA       CLOUDY    60  60 100 E8        29.62F
6HR MIN TEMP:  58; 6HR MAX TEMP:  62; 6HR PCP:  0.18;

JEFFERSON CITY CLOUDY    64  60  87 SE8       29.62S
6HR MIN TEMP:  63; 6HR MAX TEMP:  66; 6HR PCP:  1.35;

ROLLA          CLOUDY    63  61  93 SE10      29.64F
6HR MIN TEMP:  62; 6HR MAX TEMP:  67; 6HR PCP:  0.42;

SEDALIA        FOG       58  57  97 W3        29.64R VSB 1/2
6HR MIN TEMP:  57; 6HR MAX TEMP:  61; 6HR PCP:  0.02;

WHITEMAN AFB   FOG       53  53 100 CALM      29.60F VSB 3/4
WARRENSBURG    CLOUDY    54  52  94 NE3       29.61F FOG
OSAGE BEACH    CLOUDY    63  60  90 S8        29.64S

$$
MOZ051-052-059>065-300700-
...EAST CENTRAL MISSOURI...

CITY           SKY/WX    TMP DP  RH WIND       PRES   REMARKS
ST LOUIS INTL  TSTM      61  55  81 E14       29.67F
6HR MIN TEMP:  61; 6HR MAX TEMP:  66; 6HR PCP:  0.07;

SPIRIT OF STL  HVY RAIN  59  59 100 CALM      29.70S FOG
6HR MIN TEMP:  59; 6HR MAX TEMP:  66; 6HR PCP:  0.46;

ST CHARLES     TSTM      56  56 100 N6        29.70F FOG
6HR MIN TEMP:  57; 6HR MAX TEMP:  62; 6HR PCP:  0.11;


$$
MOZ072>076-082>087-097>100-106>115-300700-
...SOUTH CENTRAL AND SOUTHEAST MISSOURI...

CITY           SKY/WX    TMP DP  RH WIND       PRES   REMARKS
CAPE GIRARDEAU MOCLDY    68  57  68 SE14      29.72S THUNDER
6HR MIN TEMP:  65; 6HR MAX TEMP:  70;

FARMINGTON     CLOUDY    67  58  72 S12       29.69S
6HR MIN TEMP:  65; 6HR MAX TEMP:  68; 6HR PCP: TRACE;

POPLAR BLUFF   CLOUDY    69  58  67 SE20G32   29.68F
6HR MIN TEMP:  67; 6HR MAX TEMP:  74;


$$



USA.gov is the U.S. government's official web portal to all federal, state and local government web resources and services.